Wetbulb
59.42 59.40 59.60 59.76 59.29 55.49 48.16 39.99 35.66 46.03 46.66 39.02 36.19 35.98 39.12 44.30 41.16 42.21 40.80 40.19 39.01 36.40 36.45 34.46 34.04 34.85 37.15 41.10 40.28 35.80 36.01 31.32 27.38 31.71 37.25 38.07 35.55 32.58 35.82 29.65 26.99 34.04 32.51 29.31
59.30 59.00 59.30 59.26 57.83 52.26 43.30 36.87 37.24 45.78 44.64 35.44 35.52 37.37 41.20 41.97 40.56 40.11 40.25 39.31 40.49 39.13 36.05 33.06 35.90 36.52 41.78 40.18 38.68 34.58 35.51 30.09 24.13 28.20 32.38 35.50 33.12 34.60 34.32 37.35 33.31 29.31 24.67 29.70
59.32 58.63 58.59 58.48 57.38 53.78 42.91 37.53 34.46 40.56 41.17 38.60 37.58 36.30 38.75 38.68 42.27 41.15 41.17 39.44 39.89 37.16 35.11 37.25 35.03 34.99 40.05 39.56 40.02 46.29 40.68 31.77 28.22 24.17 28.56 31.93 31.01 34.35 34.38 32.34 25.30 25.33 27.64 30.41
59.52 58.76 58.47 58.46 57.27 54.13 42.38 36.84 35.44 38.86 35.39 37.83 36.23 38.49 39.42 37.92 37.37 39.88 40.59 37.17 38.18 35.68 31.02 32.78 33.26 34.97 35.42 37.46 40.92 36.85 34.40 28.43 29.12 32.00 33.95 33.91 33.38 33.67 34.01 30.20 29.99 26.39 28.86 30.67
59.90 59.11 58.44 58.24 56.43 52.31 40.12 35.23 34.78 37.17 37.51 38.38 37.68 38.35 37.34 37.66 38.04 37.20 35.41 34.61 36.75 35.50 32.71 34.45 32.27 33.51 32.31 32.04 34.80 31.53 31.65 26.47 29.34 29.62 34.36 34.02 32.53 34.96 34.64 32.24 31.26 31.35 32.07 31.74
60.03 59.10 58.13 57.45 54.92 50.11 39.94 38.37 40.32 39.53 37.51 35.50 36.48 36.49 37.93 39.05 39.88 39.07 38.62 37.50 35.48 33.59 35.42 36.36 36.77 36.63 35.77 35.01 32.84 30.51 29.80 27.57 27.93 25.11 31.49 32.31 29.58 32.65 32.76 32.02 33.22 31.97 30.01 32.96
60.07 59.34 58.56 57.61 54.31 52.15 41.75 40.05 41.83 37.26 34.14 36.83 38.52 40.20 40.39 39.43 38.85 37.94 37.79 37.37 35.21 38.39 39.67 38.39 35.47 34.04 34.88 33.94 33.58 34.37 29.30 29.73 28.62 25.70 29.22 24.30 32.78 36.12 36.09 35.09 36.05 35.60 35.30 36.10
58.92 59.30 59.12 58.47 55.50 53.52 44.65 42.40 39.16 37.30 32.05 37.37 39.05 40.06 39.46 38.82 38.91 37.14 38.03 38.91 39.25 39.66 36.62 31.56 30.50 31.37 32.32 33.40 33.22 31.37 32.20 29.84 26.95 24.12 24.94 30.53 33.95 34.61 34.13 32.52 32.69 37.81 36.38 36.61
56.56 58.80 58.73 58.31 56.25 54.39 48.38 44.59 42.82 37.62 33.65 33.29 41.03 39.32 39.02 35.81 35.13 34.68 36.90 38.15 38.20 37.78 33.71 31.59 26.27 25.57 29.37 29.86 31.36 32.38 32.12 32.28 29.60 26.47 23.81 23.93 33.18 35.45 36.74 35.32 28.45 37.43 38.09 36.79
54.73 58.78 58.59 58.31 56.53 54.99 51.16 44.41 47.03 40.89 33.68 35.77 40.19 37.72 38.35 38.61 35.93 34.64 33.35 36.14 35.78 35.30 29.94 27.39 25.78 26.66 32.16 28.07 28.79 28.30 28.62 28.27 24.77 26.22 23.11 29.41 36.41 37.65 37.08 25.95 30.47 37.43 38.68 37.47
54.16 55.26 58.69 58.14 56.69 55.61 52.38 45.36 45.87 43.22 37.37 37.39 42.50 43.15 38.84 37.66 37.37 34.14 34.73 34.19 33.45 31.55 27.70 27.25 27.31 26.87 30.59 30.08 31.47 31.24 29.95 26.58 25.26 26.47 23.88 25.75 39.22 36.31 32.99 35.64 35.91 38.18 38.14 38.32
54.52 54.85 57.89 57.98 57.10 55.84 54.11 42.64 46.67 45.03 39.21 36.60 44.21 44.37 43.51 42.15 41.59 37.38 33.25 36.00 32.88 34.82 29.40 28.75 29.17 29.51 30.22 30.50 27.48 32.86 28.94 33.54 30.71 31.31 31.38 38.50 39.07 38.28 39.08 38.80 38.56 38.64 38.69 39.13
54.47 54.39 55.54 57.68 57.04 55.67 53.53 45.71 45.78 44.05 39.01 38.31 40.15 40.96 44.13 45.30 42.89 43.05 35.75 34.90 37.04 35.47 36.18 32.71 30.16 28.70 31.34 28.06 29.01 30.11 32.91 35.39 33.53 33.74 37.35 37.88 39.29 39.46 40.01 40.05 39.26 40.28 40.41 40.23
54.08 53.66 53.55 56.92 56.43 55.18 53.81 47.68 46.24 45.65 38.98 32.44 33.57 43.77 41.92 46.06 45.13 43.75 42.08 40.26 39.56 37.68 35.51 31.22 28.83 27.19 32.41 28.10 31.49 30.39 33.16 32.86 32.03 32.48 34.71 37.68 39.23 39.91 40.28 40.30 40.52 40.52 40.55 40.39
53.50 53.48 54.18 55.82 55.92 54.55 53.05 47.93 47.13 47.35 38.99 30.80 32.22 39.59 42.23 43.47 44.50 43.28 42.80 41.29 37.98 35.53 33.46 31.04 29.72 31.06 31.56 30.02 30.13 30.47 33.31 32.65 31.50 32.59 36.40 36.07 37.64 39.05 41.11 40.33 40.89 41.05 40.66 39.39
52.60 52.89 54.01 54.28 55.20 53.83 48.69 43.04 46.82 45.93 44.00 37.00 29.87 38.16 37.90 40.67 42.64 41.72 40.54 40.09 37.59 35.86 33.78 31.80 32.42 34.11 32.09 24.84 25.77 33.91 34.87 38.89 39.79 37.69 37.87 38.15 37.92 37.92 39.96 40.39 41.19 41.41 40.90 41.22
51.95 51.39 52.25 54.13 54.08 50.94 46.41 41.05 43.98 49.37 45.22 37.18 31.18 32.28 36.31 39.37 38.62 37.61 37.67 38.67 37.18 36.56 34.43 32.81 32.38 33.20 33.20 25.44 27.80 33.65 35.67 36.74 38.27 39.86 35.98 34.43 37.06 38.04 39.37 40.51 41.17 42.93 40.62 40.43
51.38 51.80 51.94 52.30 52.35 50.54 45.91 45.30 49.55 49.28 42.51 39.93 30.23 29.08 32.32 36.99 33.16 33.29 37.09 34.96 35.59 34.66 34.11 33.04 32.20 32.37 31.26 27.04 35.48 35.33 38.39 39.08 37.60 36.73 37.27 39.17 37.17 37.32 38.52 40.18 40.26 39.79 39.14 38.80
51.43 51.53 51.75 51.26 50.12 43.60 45.04 50.09 48.57 46.28 41.77 32.14 29.15 28.08 25.62 35.90 33.59 34.88 34.69 35.88 31.60 33.63 31.45 31.62 32.56 29.53 26.99 33.97 35.11 35.11 36.68 35.78 36.10 37.40 38.86 36.60 36.29 37.05 37.50 37.74 37.94 39.06 38.52 37.96
50.90 49.51 45.57 42.42 45.90 50.25 49.34 45.17 40.84 39.83 39.39 35.35 29.08 31.56 29.06 33.38 31.98 30.87 32.95 33.82 30.91 25.38 30.45 31.59 28.38 27.21 34.75 37.96 36.83 38.67 38.17 37.88 38.06 34.37 33.24 34.09 33.43 35.40 37.13 37.03 39.41 40.15 40.04 39.04
46.03 42.68 36.41 40.49 49.61 44.08 37.68 31.89 32.06 33.95 32.28 34.28 32.30 31.73 30.20 34.79 30.70 30.81 33.64 30.34 30.43 25.00 28.48 28.01 25.70 24.84 33.75 38.43 38.37 40.00 40.30 39.95 38.92 39.08 38.52 38.35 37.43 36.98 36.11 35.89 37.00 38.67 38.54 38.64
44.31 41.65 43.82 45.11 37.64 32.71 30.55 30.43 32.04 31.39 29.51 34.29 31.51 31.18 34.05 33.30 36.38 33.15 31.64 28.96 27.71 25.05 29.64 24.36 26.90 30.45 36.30 36.47 36.33 37.24 37.23 37.40 37.88 38.70 38.17 37.37 38.15 38.47 37.93 37.56 37.28 37.62 38.45 36.86
44.80 42.30 34.67 32.09 31.41 27.84 27.75 26.70 29.25 29.34 32.62 35.04 33.51 32.80 33.83 34.63 36.46 33.86 31.14 27.90 27.55 29.20 25.26 25.90 28.56 33.76 35.33 35.31 35.29 35.91 36.31 36.69 36.60 36.69 37.43 38.08 37.88 38.14 37.64 37.70 37.46 37.17 36.63 36.77
32.93 30.82 26.92 28.58 26.67 30.03 31.47 31.43 33.54 33.44 35.72 34.77 36.37 34.10 34.20 34.49 32.70 32.94 28.61 29.72 26.77 22.36 23.16 24.25 29.98 32.41 34.86 34.84 34.89 34.95 35.90 36.32 35.87 35.76 36.46 36.88 37.14 37.31 37.65 37.74 37.23 36.47 35.79 36.41
31.07 31.35 27.76 28.63 32.94 30.95 31.75 34.51 35.17 36.48 37.88 37.63 36.07 32.88 33.55 30.78 31.02 31.25 28.42 26.32 23.08 24.08 25.98 29.68 32.34 33.04 33.39 32.82 33.19 34.05 34.97 35.27 35.45 35.51 35.43 36.08 36.36 36.38 36.46 36.43 36.22 36.28 36.43 36.36
31.55 30.89 31.03 32.32 31.59 27.61 31.66 34.35 34.55 38.23 38.81 39.59 35.46 31.74 30.93 30.01 30.47 26.22 25.07 23.16 22.56 27.63 28.62 31.15 32.83 32.09 33.17 32.54 33.55 34.65 34.95 34.81 34.68 34.73 35.15 35.38 35.47 35.54 35.62 35.59 35.36 36.22 36.77 35.97
30.59 29.42 35.09 32.57 31.30 31.55 32.75 35.92 36.09 40.74 38.19 33.47 31.54 27.60 28.97 29.07 26.61 24.98 26.31 25.82 33.18 30.80 32.02 32.07 33.11 33.41 33.78 33.63 33.87 33.79 33.68 33.09 32.64 32.58 32.85 33.29 34.29 34.73 34.07 33.13 34.57 36.75 37.13 36.15
MSLP
1016.13 1016.59 1017.12 1017.58 1017.94 1018.34 1018.52 1018.92 1018.72 1017.32 1017.07 1017.68 1018.06 1017.98 1017.23 1016.59 1016.58 1016.64 1016.94 1017.27 1017.66 1017.88 1018.02 1018.02 1017.84 1017.58 1017.34 1017.43 1017.56 1017.67 1017.79 1018.34 1018.11 1016.48 1015.29 1015.30 1015.50 1015.55 1015.81 1016.58 1017.36 1016.97 1016.53 1014.89
1015.26 1015.82 1016.36 1017.07 1017.55 1018.05 1018.55 1018.79 1018.40 1017.51 1017.29 1017.89 1018.15 1017.62 1017.06 1016.69 1016.63 1016.72 1016.94 1017.32 1017.61 1017.83 1018.13 1018.40 1018.09 1017.70 1017.41 1017.54 1017.66 1017.69 1017.95 1018.63 1018.64 1016.91 1016.18 1015.57 1015.76 1015.66 1015.84 1015.94 1016.37 1016.63 1016.47 1014.78
1014.48 1015.03 1015.66 1016.35 1017.12 1017.68 1018.30 1018.79 1018.66 1018.25 1018.04 1017.90 1017.61 1017.63 1017.14 1016.83 1016.52 1016.61 1016.85 1017.25 1017.64 1018.04 1018.27 1018.31 1018.22 1018.03 1017.68 1017.75 1017.89 1017.98 1018.27 1019.00 1019.30 1018.90 1017.74 1017.30 1016.62 1015.90 1015.54 1015.69 1016.01 1015.80 1015.73 1015.07
1013.48 1014.36 1014.83 1015.64 1016.49 1017.35 1017.98 1018.29 1017.87 1017.13 1018.04 1017.88 1017.49 1017.27 1017.00 1016.79 1016.76 1016.79 1016.96 1017.61 1017.75 1018.17 1018.61 1018.71 1018.57 1018.36 1018.35 1018.19 1018.34 1018.48 1019.11 1019.56 1019.40 1018.73 1017.74 1017.33 1016.60 1015.84 1015.25 1015.16 1014.98 1015.17 1015.06 1015.04
1012.12 1013.14 1013.94 1014.81 1015.94 1016.98 1017.71 1017.71 1017.54 1017.17 1017.00 1016.98 1017.19 1017.19 1016.95 1016.69 1016.66 1016.80 1017.17 1017.53 1017.91 1018.21 1018.59 1018.61 1018.74 1018.72 1019.02 1018.89 1018.99 1019.36 1019.84 1019.93 1019.76 1018.75 1017.33 1016.87 1016.19 1015.03 1014.68 1014.62 1014.49 1014.58 1014.71 1014.86
1011.01 1011.94 1012.98 1013.79 1014.88 1015.97 1016.75 1016.50 1016.22 1016.12 1016.41 1016.74 1016.99 1016.36 1016.04 1015.98 1016.29 1016.65 1016.67 1017.19 1017.89 1018.26 1017.89 1018.06 1018.03 1018.22 1018.51 1018.73 1019.28 1020.01 1020.41 1020.53 1020.51 1019.40 1017.88 1016.66 1015.74 1014.24 1013.98 1014.02 1014.15 1014.41 1014.55 1014.61
1009.90 1010.79 1011.76 1012.56 1013.43 1013.97 1015.14 1015.34 1015.44 1016.27 1016.35 1016.17 1015.72 1015.49 1015.68 1015.82 1015.98 1016.40 1016.90 1017.39 1017.79 1017.52 1017.40 1017.78 1017.91 1018.27 1018.33 1018.77 1019.11 1019.68 1020.34 1020.82 1020.82 1020.16 1018.48 1017.10 1014.95 1013.87 1013.35 1013.51 1013.73 1013.98 1014.36 1014.60
1009.27 1009.45 1010.63 1011.48 1012.34 1012.87 1014.11 1014.70 1014.86 1015.50 1015.72 1015.41 1015.52 1015.39 1015.58 1015.87 1016.19 1016.66 1017.04 1017.34 1017.43 1017.46 1017.97 1018.50 1018.74 1018.43 1018.46 1018.70 1018.99 1019.59 1020.06 1020.59 1020.96 1020.75 1019.52 1017.13 1014.65 1013.98 1013.62 1013.56 1013.55 1013.50 1014.13 1014.75
1008.54 1008.63 1009.29 1010.54 1011.44 1012.45 1013.46 1014.07 1014.25 1014.91 1015.21 1014.79 1014.41 1015.17 1015.33 1016.05 1016.52 1017.12 1017.24 1017.51 1017.76 1018.04 1018.98 1019.51 1020.07 1019.74 1019.12 1019.07 1019.36 1019.70 1020.19 1020.52 1020.90 1021.03 1019.92 1017.51 1014.76 1013.64 1013.42 1013.58 1013.63 1013.38 1013.79 1014.61
1008.21 1007.74 1008.48 1009.32 1010.38 1011.56 1013.00 1013.48 1013.82 1014.54 1015.03 1014.20 1014.07 1014.29 1014.73 1015.36 1016.01 1016.74 1017.44 1017.69 1018.30 1018.66 1019.76 1020.33 1020.70 1020.29 1019.37 1019.27 1019.31 1019.94 1020.51 1020.86 1020.91 1020.68 1019.54 1016.74 1014.35 1013.61 1013.51 1014.04 1013.99 1013.36 1013.79 1014.37
1007.45 1007.87 1007.67 1008.34 1009.36 1010.50 1011.82 1012.94 1013.42 1013.97 1014.64 1014.22 1013.87 1013.76 1014.20 1014.89 1015.25 1016.10 1017.06 1018.19 1018.83 1019.69 1020.30 1020.63 1020.64 1020.64 1019.82 1019.53 1018.71 1018.51 1019.03 1019.66 1020.12 1020.03 1018.88 1016.28 1013.80 1013.76 1013.69 1013.19 1013.22 1013.35 1013.81 1014.20
1006.74 1006.47 1006.28 1007.11 1008.39 1009.39 1010.85 1012.68 1012.96 1013.52 1014.49 1014.50 1013.94 1013.55 1013.39 1013.54 1013.65 1014.73 1016.16 1016.82 1017.60 1018.60 1019.65 1020.42 1020.40 1020.49 1020.04 1019.87 1019.38 1017.99 1018.17 1017.67 1017.76 1017.62 1015.96 1014.27 1013.48 1012.99 1012.53 1012.64 1012.83 1013.13 1013.62 1014.21
1005.63 1005.68 1005.71 1006.13 1007.13 1008.50 1009.67 1011.25 1012.56 1013.47 1014.35 1014.44 1014.22 1013.51 1013.20 1013.32 1013.38 1013.45 1014.98 1016.85 1016.84 1017.99 1018.30 1019.53 1020.21 1020.30 1019.79 1019.71 1018.91 1017.97 1017.15 1016.65 1016.75 1016.43 1014.33 1013.69 1013.16 1012.76 1012.49 1012.53 1012.65 1012.64 1013.08 1013.79
1004.86 1004.93 1005.27 1005.67 1006.35 1007.43 1008.99 1010.21 1011.52 1012.37 1013.69 1014.48 1013.65 1013.29 1013.17 1012.91 1013.25 1013.60 1014.14 1015.28 1016.71 1017.53 1018.36 1019.38 1020.05 1020.29 1019.23 1018.97 1018.01 1017.69 1016.59 1016.27 1015.74 1014.86 1013.74 1013.25 1012.62 1012.26 1012.08 1012.22 1012.39 1012.63 1013.04 1013.59
1003.87 1004.38 1004.83 1004.77 1005.79 1006.89 1008.72 1010.16 1010.94 1011.13 1012.07 1013.29 1013.90 1013.44 1013.12 1013.23 1013.40 1014.01 1014.45 1015.51 1016.80 1018.10 1019.07 1019.83 1020.04 1019.48 1019.44 1019.04 1018.42 1016.17 1015.27 1014.35 1014.62 1013.35 1012.31 1012.63 1012.14 1011.71 1011.74 1012.10 1012.19 1012.44 1012.91 1013.58
1003.81 1004.10 1003.96 1004.34 1005.04 1006.81 1008.73 1010.78 1010.98 1010.79 1011.28 1012.95 1013.89 1013.66 1013.63 1013.85 1013.99 1014.50 1015.25 1016.03 1017.06 1018.04 1018.68 1019.34 1019.09 1018.55 1018.52 1018.92 1017.53 1013.68 1012.84 1012.49 1012.32 1011.55 1011.67 1011.88 1011.78 1011.80 1011.78 1012.01 1012.09 1012.32 1012.72 1012.98
1003.44 1003.81 1003.93 1003.48 1004.03 1005.83 1006.68 1007.56 1007.83 1009.42 1010.76 1012.72 1014.01 1014.09 1014.20 1014.27 1014.75 1015.65 1016.31 1016.67 1017.49 1018.03 1018.61 1019.05 1018.86 1018.60 1018.27 1018.20 1015.49 1011.90 1011.72 1011.53 1011.34 1010.98 1011.70 1011.75 1011.80 1011.45 1011.52 1011.68 1011.66 1011.95 1012.24 1012.71
1002.89 1003.21 1003.68 1003.59 1003.91 1006.16 1006.79 1007.23 1007.54 1008.14 1010.85 1012.50 1013.60 1014.51 1014.81 1014.42 1015.24 1016.16 1016.69 1017.48 1017.82 1018.14 1018.32 1018.73 1018.58 1018.50 1018.00 1016.81 1010.26 1011.10 1010.93 1011.03 1010.91 1010.93 1010.90 1010.63 1010.80 1010.99 1011.16 1011.27 1011.55 1011.88 1012.33 1012.74
1002.51 1003.10 1003.38 1003.70 1003.33 1004.69 1006.15 1007.48 1008.39 1008.81 1010.68 1012.35 1013.17 1013.66 1014.60 1014.26 1015.29 1016.05 1017.06 1017.15 1018.07 1018.23 1018.16 1018.07 1017.97 1017.17 1015.51 1011.14 1010.59 1010.43 1009.74 1010.02 1009.77 1009.84 1010.02 1010.47 1010.86 1010.81 1010.77 1010.95 1011.23 1011.67 1012.00 1012.76
1002.39 1003.16 1002.66 1002.59 1002.61 1004.27 1006.34 1008.24 1009.02 1009.93 1011.06 1012.09 1012.10 1012.28 1013.48 1013.83 1015.12 1016.03 1016.72 1017.08 1017.37 1018.16 1017.43 1017.28 1016.66 1014.27 1011.79 1009.28 1009.51 1009.05 1008.78 1008.94 1009.10 1009.39 1009.66 1009.88 1010.24 1010.56 1010.38 1010.37 1010.54 1010.91 1011.22 1011.94
1002.34 1002.47 1003.11 1003.51 1002.99 1004.45 1006.22 1007.65 1008.44 1009.84 1011.08 1010.66 1010.94 1010.94 1012.22 1013.33 1014.03 1015.13 1015.81 1016.67 1017.14 1017.39 1016.27 1016.41 1014.90 1012.52 1008.90 1007.96 1007.83 1007.09 1007.36 1007.74 1008.03 1008.10 1008.28 1008.55 1008.77 1009.37 1009.63 1009.75 1009.89 1010.16 1010.70 1011.40
1001.26 1002.22 1002.61 1002.93 1003.63 1004.50 1005.25 1006.41 1007.54 1008.06 1008.32 1008.32 1008.85 1009.53 1010.45 1012.47 1012.78 1014.11 1015.67 1016.13 1016.71 1016.03 1015.60 1015.55 1012.57 1009.14 1007.42 1007.03 1006.44 1006.23 1006.57 1006.79 1006.93 1007.13 1007.58 1007.94 1008.28 1008.53 1008.92 1009.23 1009.49 1009.83 1010.33 1011.16
1001.57 1001.88 1002.51 1002.86 1002.75 1002.86 1002.89 1003.97 1005.67 1005.45 1004.82 1005.63 1006.42 1008.49 1010.18 1011.52 1011.87 1013.34 1014.63 1015.43 1015.37 1014.86 1014.96 1012.44 1009.31 1007.30 1006.41 1006.02 1006.04 1006.05 1006.18 1006.29 1006.51 1006.60 1006.75 1007.09 1007.67 1008.15 1008.56 1008.85 1009.04 1009.55 1010.32 1011.00
1001.77 1001.93 1002.24 1002.02 1001.69 1001.91 1001.79 1000.50 1000.06 1002.01 1002.63 1003.93 1005.66 1007.74 1008.83 1010.08 1011.29 1012.31 1013.91 1013.90 1014.18 1014.03 1012.46 1009.17 1007.27 1006.22 1005.54 1005.54 1005.55 1005.88 1005.84 1005.86 1005.77 1005.98 1006.29 1006.79 1007.33 1007.76 1008.05 1008.47 1008.87 1009.47 1010.23 1010.91
1001.24 1001.02 1000.59 1000.65 1000.23 1000.24 1000.33 1000.06 1000.62 1001.39 1001.93 1002.87 1005.44 1007.37 1008.16 1009.51 1010.66 1011.45 1012.78 1013.52 1012.22 1010.57 1008.16 1006.08 1004.97 1004.78 1004.70 1004.87 1005.18 1005.46 1005.74 1005.54 1005.66 1005.93 1006.25 1006.83 1007.18 1007.57 1007.99 1008.42 1008.86 1009.46 1010.20 1010.97
1000.25 999.82 999.08 999.64 1000.08 1000.09 999.67 999.58 1000.28 1000.63 1001.17 1002.78 1003.99 1006.16 1008.04 1008.67 1009.14 1010.79 1010.75 1010.72 1008.74 1006.07 1004.85 1004.19 1004.05 1004.11 1004.27 1004.44 1004.68 1005.18 1005.49 1005.54 1005.81 1006.10 1006.49 1006.84 1007.23 1007.65 1008.03 1008.52 1008.99 1009.53 1010.10 1010.90
999.70 999.37 998.82 998.87 998.82 998.83 998.81 998.84 999.39 999.68 1000.20 1001.79 1003.00 1005.02 1006.40 1007.56 1008.43 1008.81 1008.03 1006.67 1003.11 1003.37 1003.61 1003.47 1003.54 1003.51 1003.78 1004.16 1004.67 1005.10 1005.47 1005.78 1006.06 1006.41 1006.68 1006.98 1007.31 1007.70 1008.21 1008.81 1009.21 1009.71 1010.39 1011.17
Wind_Speed
19 18 15 13 9 5 5 2 1 3 2 3 1 4 5 3 4 1 1 2 3 3 2 3 2 2 3 4 3 4 1 3 6 8 6 3 3 3 3 4 3 2 1 7
21 19 17 14 11 10 4 3 2 3 4 3 2 3 2 4 4 3 4 3 2 2 1 3 4 2 4 8 4 3 2 1 5 10 7 6 4 4 2 1 2 3 2 7
21 20 18 16 14 12 4 3 1 3 3 1 6 4 4 4 3 3 4 3 3 1 2 3 4 2 2 6 3 6 2 2 6 6 8 0 8 13 4 1 2 2 4 6
22 20 20 19 17 14 4 2 6 4 4 4 5 6 6 5 5 3 6 2 4 5 2 2 5 1 5 4 6 3 4 3 3 7 13 6 8 10 8 2 3 2 2 2
26 24 23 21 18 14 2 6 5 1 3 2 8 7 8 9 3 7 4 5 7 6 6 8 6 3 3 6 2 2 3 4 3 7 4 2 7 8 5 2 2 0 1 1
26 26 23 23 24 14 3 2 1 4 2 5 6 7 8 10 8 4 5 7 6 6 10 8 11 9 7 6 5 2 1 1 2 6 5 7 3 4 2 1 1 2 3 2
27 27 27 27 30 26 4 4 4 4 4 5 8 9 8 9 11 8 4 5 6 6 3 4 3 4 7 6 7 7 4 3 2 5 7 2 4 4 3 4 3 3 2 2
28 30 29 29 31 32 4 2 4 5 3 4 3 7 5 4 3 3 6 5 6 5 4 3 6 5 1 2 3 6 4 4 0 0 2 7 2 3 4 4 5 6 5 4
20 29 30 29 30 30 8 3 3 3 6 7 5 6 6 6 5 2 3 3 2 5 3 3 2 3 2 2 3 5 5 4 3 2 1 4 4 1 1 2 6 6 7 6
18 27 29 30 30 29 13 3 4 4 3 3 5 5 8 6 4 4 2 5 1 3 2 2 4 4 3 3 4 5 3 2 5 3 3 9 7 3 3 1 8 5 6 6
18 19 31 30 31 29 15 4 5 5 2 3 5 5 6 3 3 7 5 5 1 2 3 4 4 4 3 2 3 7 8 7 5 3 2 9 6 4 6 7 1 4 4 5
18 22 26 31 30 29 23 3 4 4 3 4 1 2 2 3 8 8 2 5 6 5 4 1 3 3 1 2 5 2 2 7 6 10 9 5 4 5 4 6 5 4 5 4
18 17 10 31 31 30 24 6 5 4 4 5 1 4 3 1 4 3 7 2 5 4 3 4 2 3 4 5 7 2 4 4 4 1 6 8 7 5 4 7 6 5 4 7
18 13 9 26 30 31 24 8 4 8 4 4 5 1 3 3 4 3 4 7 6 6 3 3 4 3 4 4 4 5 6 4 5 8 7 7 8 8 6 6 5 5 4 7
17 12 16 17 29 31 15 4 4 9 7 6 3 1 1 1 7 9 8 9 6 3 3 3 4 2 3 2 3 7 8 9 8 13 7 6 7 3 5 8 8 8 7 5
12 13 21 13 31 30 7 2 5 5 5 5 2 2 2 3 7 9 8 5 4 3 5 4 3 3 4 3 6 7 8 15 17 18 6 7 4 4 3 5 6 8 9 8
14 9 10 16 33 16 15 8 6 17 5 4 1 2 2 5 5 3 3 3 2 3 3 3 3 3 5 3 11 6 10 12 14 16 4 6 6 9 8 7 8 6 5 5
16 12 15 3 35 11 5 3 16 19 6 2 4 2 2 3 3 3 1 3 1 0 3 1 3 1 2 6 24 4 14 15 12 9 11 13 4 6 8 6 5 6 6 6
15 12 14 3 12 6 5 15 10 6 6 6 4 9 6 4 3 4 2 2 2 1 3 4 5 4 9 19 13 11 16 11 9 9 14 10 9 10 9 8 7 8 8 7
12 5 4 4 3 36 23 5 3 4 0 2 4 2 5 6 3 2 4 1 3 3 6 3 5 6 17 21 10 14 12 13 13 9 6 6 7 11 14 15 12 13 12 10
4 3 1 2 29 5 5 5 7 5 4 5 5 5 8 2 5 4 3 4 3 4 5 6 5 6 18 14 19 21 21 18 15 16 11 11 8 8 8 8 10 9 9 10
7 6 4 2 4 3 8 6 5 8 11 8 9 6 8 4 5 5 3 4 2 7 4 3 7 8 12 9 10 9 8 9 12 14 13 10 9 8 8 7 6 8 8 9
3 3 4 4 3 6 9 10 6 8 8 9 11 13 6 3 3 5 4 6 8 4 4 7 8 4 6 8 5 6 7 8 8 9 9 9 9 8 7 7 5 7 8 9
3 5 7 6 5 5 6 17 11 3 10 15 18 8 6 4 4 5 6 4 4 4 6 9 4 9 10 6 4 4 7 8 8 8 8 9 9 9 7 7 7 9 11 12
4 5 6 6 4 2 3 5 6 9 16 19 14 5 4 3 6 3 5 4 8 9 8 7 5 6 6 4 5 7 7 7 6 5 6 7 7 7 7 6 6 7 10 12
1 3 3 1 4 2 5 9 12 13 16 16 4 6 5 4 7 6 10 7 10 9 6 4 4 5 4 5 6 7 6 6 5 5 4 5 6 6 6 5 7 9 13 14
5 5 2 4 4 5 5 11 12 17 18 13 6 8 7 5 5 6 7 11 10 4 4 4 6 7 7 6 6 6 6 5 4 4 5 5 5 5 6 7 6 10 9 9
Wind_Direction
210 210 214 210 207 153 66 110 11 296 49 54 29 157 195 165 169 156 162 140 204 220 318 295 285 273 132 330 300 306 235 161 286 262 284 260 228 313 85 99 266 260 197 280
206 205 205 201 189 163 134 166 222 319 83 172 219 259 216 183 149 191 171 176 187 154 237 301 241 291 192 20 354 307 187 332 330 347 355 6 2 310 35 225 106 168 88 290
205 199 198 192 184 172 102 111 155 326 52 316 146 166 216 194 207 180 164 170 107 118 253 236 272 277 305 348 335 62 64 166 175 210 234 4 310 311 349 59 95 264 222 288
200 200 194 189 177 170 107 147 228 183 195 241 181 163 172 169 193 204 166 125 184 160 239 273 252 259 323 337 336 56 82 264 216 255 262 260 260 269 296 276 279 153 265 301
194 194 192 184 171 146 118 153 158 73 169 130 144 175 204 189 205 150 222 192 181 185 191 202 250 220 171 239 353 83 355 278 357 287 307 185 271 261 239 285 323 272 118 291
196 190 189 179 161 148 184 200 314 123 178 155 146 203 189 197 156 220 176 170 141 205 228 221 229 213 192 202 178 83 304 205 25 271 331 312 292 231 219 160 218 241 225 213
197 192 187 183 173 185 155 203 121 116 222 174 199 168 181 181 192 169 173 135 145 229 109 325 295 237 230 211 240 169 192 168 153 273 340 250 265 320 191 159 220 232 209 188
225 193 193 188 183 187 153 188 137 145 207 169 184 181 163 139 111 144 159 213 208 132 62 32 350 337 316 119 172 192 168 141 108 64 266 289 278 205 203 174 267 190 180 155
286 200 191 190 187 189 187 170 132 126 125 237 140 169 172 157 162 111 206 41 122 68 85 76 115 259 294 295 108 61 96 71 115 116 109 244 246 238 122 83 289 201 161 174
279 208 197 189 186 188 183 212 157 105 146 244 154 168 178 140 128 128 138 155 103 47 113 134 157 257 231 251 188 174 139 166 194 207 255 284 240 225 126 101 243 177 180 181
262 269 202 190 185 183 179 186 182 138 149 273 193 176 132 102 145 149 176 74 345 60 138 148 190 175 253 299 217 182 171 155 196 129 188 268 187 105 170 216 231 181 184 189
248 252 211 186 185 178 178 177 163 129 126 233 279 265 222 215 182 133 173 162 150 181 107 222 112 182 163 188 267 70 242 191 187 182 211 248 221 227 226 175 174 198 176 189
237 241 271 190 184 176 178 149 145 93 103 324 90 222 213 98 189 167 124 289 151 172 170 155 154 198 134 187 233 228 254 162 207 46 245 237 244 247 230 195 209 194 177 168
213 202 341 207 183 171 172 168 167 167 115 188 266 7 181 178 134 91 106 129 78 99 86 123 144 182 176 218 243 184 205 151 201 256 263 302 269 226 216 201 198 168 152 172
226 222 217 228 177 168 165 112 187 188 159 172 219 344 222 125 146 125 114 117 111 118 104 116 208 205 134 253 318 231 184 206 208 244 219 192 233 224 209 190 195 194 170 167
225 226 205 266 169 155 130 113 250 182 142 105 124 298 145 81 111 109 112 111 93 107 143 195 222 260 133 172 252 242 216 215 223 244 162 202 215 267 182 191 224 213 197 192
214 213 201 221 156 157 170 181 175 162 102 106 62 233 342 107 102 68 79 46 106 125 148 211 183 223 150 144 252 182 211 223 231 242 184 260 192 239 205 207 240 223 209 197
218 202 217 290 152 121 183 51 155 141 101 84 161 171 111 176 122 105 130 109 101 185 179 118 179 85 141 239 245 263 241 234 244 228 207 237 208 212 205 188 157 176 212 186
209 205 184 218 172 142 140 104 89 59 107 179 151 148 197 145 115 113 75 132 147 91 197 223 143 191 215 233 256 233 239 207 219 237 237 212 206 212 219 229 218 202 212 190
194 175 175 174 130 116 111 94 75 47 108 85 177 150 149 125 137 136 111 212 182 176 228 124 207 247 255 247 228 244 241 213 221 225 222 201 215 218 228 220 224 214 207 184
177 178 152 213 123 84 89 136 152 140 192 204 181 171 130 217 127 140 173 170 159 200 222 182 234 250 244 249 232 244 248 238 226 226 221 209 189 192 208 214 210 198 175 179
154 131 186 113 96 131 129 145 141 168 195 182 168 164 128 175 129 112 181 161 120 241 143 153 250 241 238 232 234 239 226 219 221 212 214 203 196 200 189 201 197 185 173 139
102 200 112 190 178 161 151 141 166 194 168 161 155 151 129 107 103 90 130 171 214 100 191 229 228 233 247 231 221 244 223 222 222 208 199 192 192 195 189 207 203 160 152 154
145 179 159 215 157 179 204 190 180 126 137 144 147 137 128 140 115 134 155 212 108 216 233 235 220 221 236 222 200 201 240 209 188 194 182 184 186 198 201 185 161 152 157 158
187 178 192 187 194 129 172 136 108 136 144 142 139 76 96 118 111 135 104 175 238 217 226 220 210 220 195 203 208 217 218 184 175 174 177 194 188 173 177 179 161 142 140 149
199 252 118 112 140 200 153 144 137 156 144 141 103 128 132 171 128 148 203 182 220 231 210 220 180 195 196 194 185 192 181 155 141 152 168 164 169 181 186 152 153 152 152 153
173 216 222 177 110 156 142 147 154 158 150 160 138 130 170 117 155 205 191 212 231 146 199 206 197 189 189 176 164 163 157 156 171 185 192 196 180 156 136 144 147 142 145 141